Location: Peebles
(55.6412°N, 3.1714°W)
Time: 06:00:15
(UTC+00:00)

Cosmos 1833 - Visible Passes

Search period start: 27 January 2022 00:00
Search period end: 06 February 2022 00:00
Orbit: 830 x 868 km, 70.9° (Epoch: 26 January)

Date Brightness Start Highest point End Pass type
(mag) Time Alt. Az. Time Alt. Az. Time Alt. Az.
27 Jan 5.3 18:37:03 10° NW 18:42:37 48° WSW 18:48:08 10° S visible
28 Jan 5.3 18:24:17 10° NW 18:29:51 48° WSW 18:35:23 10° S visible
28 Jan 7.5 20:12:18 10° W 20:12:43 10° W 20:13:09 10° W visible
29 Jan 5.3 18:11:31 10° NW 18:17:06 49° WSW 18:22:38 10° S visible
29 Jan 7.5 19:59:19 10° W 19:59:58 10° W 20:00:37 10° W visible
30 Jan 5.3 17:58:46 10° NW 18:04:21 49° WSW 18:09:53 10° S visible
30 Jan 7.6 19:46:24 10° W 19:47:13 10° W 19:48:02 10° W visible
31 Jan 7.2 07:16:45 10° SE 07:20:43 20° E 07:24:43 10° NE visible
31 Jan 5.4 17:45:59 10° NW 17:51:35 50° WSW 17:57:07 10° S visible
31 Jan 7.7 19:33:30 10° W 19:34:28 10° W 19:35:25 10° WSW visible
01 Feb 7.2 07:04:01 10° SE 07:07:58 20° E 07:11:57 10° NE visible
01 Feb 5.4 17:33:14 10° NW 17:38:49 50° WSW 17:44:22 10° S visible
01 Feb 7.7 19:20:38 10° W 19:21:43 10° W 19:22:47 10° WSW visible
02 Feb 7.3 06:51:17 10° SE 06:55:13 19° E 06:59:11 10° ENE visible
02 Feb 5.4 17:20:28 10° NW 17:26:04 50° WSW 17:31:37 10° S visible
02 Feb 7.8 19:07:47 10° W 19:08:57 11° W 19:10:08 10° WSW visible
03 Feb 7.3 06:38:33 10° SE 06:42:28 19° E 06:46:24 10° ENE visible
03 Feb 7.9 18:54:55 10° W 18:56:12 11° W 18:57:29 10° WSW visible
04 Feb 7.3 06:25:49 10° SE 06:29:42 19° E 06:33:37 10° ENE visible
04 Feb 7.9 18:42:05 10° W 18:43:27 11° W 18:44:49 10° WSW visible
05 Feb 7.2 06:13:05 10° SE 06:16:57 19° E 06:20:51 10° ENE visible
05 Feb 7.9 18:29:15 10° WNW 18:30:42 11° W 18:32:08 10° WSW visible
